PUA1502 SUMU-SAZB

Flight info

Callsign PUA1502
Flight time 1h 28m
Altitude 34000
Route DAGUS UL405 PTA UP664 ATITO UW18 MOXAN MOXAN2U
Aircraft A321/M-SDE3FGHIRWY/LB1

Departure

Time 2026-05-06 14:09
Airport Carrasco General Cesáreo L. Berisso International Airport (SUMU)

Arrival

Time 2026-05-06 15:37
Airport Comandante Espora Airport (SAZB)
Time Latitude Longitude Altitude Speed Heading
2026-05-06 13:39 -34.83616 -56.01804 82 ft 0 kts 144°
2026-05-06 13:51 -34.83616 -56.01805 82 ft 0 kts 144°
2026-05-06 14:02 -34.83604 -56.01815 87 ft 4 kts 140°
2026-05-06 14:02 -34.83585 -56.01837 85 ft 4 kts 129°
2026-05-06 14:02 -34.83571 -56.01864 86 ft 4 kts 104°
2026-05-06 14:02 -34.83571 -56.01890 85 ft 2 kts 54°
2026-05-06 14:03 -34.83572 -56.01892 85 ft 0 kts 53°
2026-05-06 14:05 -34.83569 -56.01888 85 ft 4 kts 53°
2026-05-06 14:05 -34.83539 -56.01839 94 ft 8 kts 53°
2026-05-06 14:05 -34.83509 -56.01789 85 ft 7 kts 52°
2026-05-06 14:06 -34.83460 -56.01768 86 ft 10 kts 354°
2026-05-06 14:06 -34.83381 -56.01825 86 ft 16 kts 324°
2026-05-06 14:06 -34.83277 -56.01819 85 ft 16 kts 48°
2026-05-06 14:06 -34.83209 -56.01711 85 ft 16 kts 53°
2026-05-06 14:07 -34.83146 -56.01606 85 ft 15 kts 54°
2026-05-06 14:07 -34.83086 -56.01506 84 ft 14 kts 54°
2026-05-06 14:07 -34.83029 -56.01411 83 ft 13 kts 54°
2026-05-06 14:07 -34.82976 -56.01322 83 ft 13 kts 54°
2026-05-06 14:08 -34.82909 -56.01238 87 ft 19 kts 25°
2026-05-06 14:08 -34.82790 -56.01315 82 ft 16 kts 306°
2026-05-06 14:08 -34.82848 -56.01454 85 ft 38 kts 234°
2026-05-06 14:08 -34.83149 -56.01946 88 ft 103 kts 233°
2026-05-06 14:09 -34.83683 -56.02827 84 ft 153 kts 234°
2026-05-06 14:09 -34.84361 -56.03952 411 ft 163 kts 231°
2026-05-06 14:09 -34.85032 -56.05051 1026 ft 163 kts 231°
2026-05-06 14:09 -34.85736 -56.06118 1567 ft 165 kts 231°
2026-05-06 14:10 -34.86508 -56.07215 1885 ft 180 kts 231°
2026-05-06 14:10 -34.87367 -56.08404 2080 ft 199 kts 230°
2026-05-06 14:10 -34.88304 -56.09694 2416 ft 206 kts 230°
2026-05-06 14:10 -34.89270 -56.11011 2761 ft 211 kts 230°
2026-05-06 14:11 -34.90271 -56.12348 3183 ft 214 kts 230°
2026-05-06 14:11 -34.91282 -56.13679 3671 ft 215 kts 230°
2026-05-06 14:11 -34.92316 -56.15010 4103 ft 220 kts 231°
2026-05-06 14:11 -34.93386 -56.16415 4470 ft 230 kts 240°
2026-05-06 14:12 -34.93992 -56.18162 5067 ft 224 kts 266°
2026-05-06 14:12 -34.94133 -56.20068 5634 ft 228 kts 269°
2026-05-06 14:12 -34.94255 -56.22025 6242 ft 235 kts 269°
2026-05-06 14:12 -34.94379 -56.24039 6774 ft 244 kts 269°
2026-05-06 14:13 -34.94507 -56.26147 7254 ft 256 kts 269°
2026-05-06 14:13 -34.94645 -56.28352 7745 ft 267 kts 268°
2026-05-06 14:13 -34.94791 -56.30646 8240 ft 273 kts 268°
2026-05-06 14:13 -34.94937 -56.32968 8737 ft 276 kts 269°
2026-05-06 14:14 -34.95083 -56.35319 9205 ft 279 kts 269°
2026-05-06 14:14 -34.95226 -56.37657 9598 ft 281 kts 269°
2026-05-06 14:14 -34.95372 -56.40036 10048 ft 282 kts 269°
2026-05-06 14:14 -34.95521 -56.42456 10541 ft 291 kts 268°
2026-05-06 14:15 -34.95674 -56.44948 11043 ft 299 kts 268°
2026-05-06 14:15 -34.95833 -56.47503 11553 ft 306 kts 268°
2026-05-06 14:15 -34.95995 -56.50120 12071 ft 313 kts 268°
2026-05-06 14:15 -34.96160 -56.52793 12604 ft 320 kts 268°
2026-05-06 14:16 -34.96327 -56.55524 13128 ft 326 kts 268°
2026-05-06 14:16 -34.96498 -56.58303 13671 ft 331 kts 268°
2026-05-06 14:16 -34.96668 -56.61126 14167 ft 336 kts 268°
2026-05-06 14:16 -34.96836 -56.63994 14655 ft 341 kts 268°
2026-05-06 14:17 -34.97009 -56.66894 15154 ft 345 kts 268°
2026-05-06 14:17 -34.97186 -56.69831 15659 ft 350 kts 267°
2026-05-06 14:17 -34.97366 -56.72804 16174 ft 353 kts 267°
2026-05-06 14:17 -34.97545 -56.75803 16699 ft 356 kts 267°
2026-05-06 14:18 -34.97724 -56.78823 17232 ft 359 kts 267°
2026-05-06 14:18 -34.97904 -56.81859 17767 ft 360 kts 267°
2026-05-06 14:18 -34.98085 -56.84912 18310 ft 361 kts 267°
2026-05-06 14:18 -34.98263 -56.87971 18788 ft 362 kts 268°
2026-05-06 14:19 -34.98371 -56.91037 19278 ft 363 kts 270°
2026-05-06 14:19 -34.98385 -56.94072 19769 ft 363 kts 271°
2026-05-06 14:19 -34.98345 -56.97145 20302 ft 362 kts 272°
2026-05-06 14:19 -34.98292 -57.00212 20887 ft 361 kts 272°
2026-05-06 14:20 -34.98246 -57.03264 21480 ft 359 kts 272°
2026-05-06 14:20 -34.98214 -57.06300 22093 ft 357 kts 272°
2026-05-06 14:20 -34.98192 -57.09311 22710 ft 355 kts 272°
2026-05-06 14:20 -34.98177 -57.12306 23356 ft 352 kts 272°
2026-05-06 14:21 -34.98167 -57.15277 23918 ft 349 kts 272°
2026-05-06 14:21 -34.98155 -57.18219 24459 ft 345 kts 272°
2026-05-06 14:21 -34.98139 -57.21126 25013 ft 341 kts 272°
2026-05-06 14:21 -34.98122 -57.24006 25584 ft 337 kts 272°
2026-05-06 14:22 -34.98107 -57.26839 26160 ft 332 kts 272°
2026-05-06 14:22 -34.98094 -57.29631 26749 ft 327 kts 272°
2026-05-06 14:22 -34.98079 -57.32377 27351 ft 321 kts 272°
2026-05-06 14:22 -34.98060 -57.35113 27664 ft 325 kts 272°
2026-05-06 14:23 -34.98040 -57.37888 27924 ft 329 kts 272°
2026-05-06 14:23 -34.98019 -57.40654 28179 ft 332 kts 272°
2026-05-06 14:23 -34.97997 -57.43486 28441 ft 336 kts 272°
2026-05-06 14:23 -34.97976 -57.46349 28710 ft 339 kts 272°
2026-05-06 14:24 -34.97955 -57.49232 28982 ft 342 kts 272°
2026-05-06 14:24 -34.97931 -57.52143 29243 ft 345 kts 272°
2026-05-06 14:24 -34.97910 -57.55082 29531 ft 348 kts 272°
2026-05-06 14:24 -34.97888 -57.58035 29808 ft 350 kts 272°
2026-05-06 14:25 -34.97862 -57.61017 30073 ft 353 kts 272°
2026-05-06 14:25 -34.97836 -57.64012 30312 ft 355 kts 272°
2026-05-06 14:25 -34.97810 -57.67029 30552 ft 357 kts 271°
2026-05-06 14:25 -34.97782 -57.70061 30796 ft 359 kts 271°
2026-05-06 14:26 -34.97751 -57.73107 31039 ft 360 kts 271°
2026-05-06 14:26 -34.97720 -57.76167 31285 ft 362 kts 271°
2026-05-06 14:26 -34.97690 -57.79243 31534 ft 363 kts 271°
2026-05-06 14:26 -34.97685 -57.82334 31780 ft 365 kts 268°
2026-05-06 14:27 -34.98076 -57.85397 32032 ft 369 kts 257°
2026-05-06 14:27 -34.99017 -57.88336 32293 ft 376 kts 246°
2026-05-06 14:27 -35.00494 -57.91003 32544 ft 385 kts 235°
2026-05-06 14:27 -35.02464 -57.93274 32803 ft 396 kts 224°
2026-05-06 14:28 -35.04788 -57.95067 33066 ft 403 kts 219°
2026-05-06 14:28 -35.07200 -57.96808 33328 ft 403 kts 219°
2026-05-06 14:28 -35.09622 -57.98551 33590 ft 404 kts 219°
2026-05-06 14:28 -35.12044 -58.00297 33845 ft 405 kts 219°
2026-05-06 14:29 -35.16935 -58.03851 33934 ft 413 kts 219°
2026-05-06 14:29 -35.21884 -58.07453 33925 ft 415 kts 219°
2026-05-06 14:30 -35.26857 -58.11064 33920 ft 416 kts 219°
2026-05-06 14:30 -35.31823 -58.14683 33918 ft 416 kts 219°
2026-05-06 14:31 -35.36795 -58.18323 33915 ft 417 kts 219°
2026-05-06 14:31 -35.41778 -58.21976 33912 ft 417 kts 219°
2026-05-06 14:32 -35.46734 -58.25600 33900 ft 418 kts 219°
2026-05-06 14:32 -35.51728 -58.29262 33901 ft 419 kts 219°
2026-05-06 14:33 -35.56733 -58.32937 33898 ft 419 kts 219°
2026-05-06 14:33 -35.61746 -58.36626 33900 ft 421 kts 219°
2026-05-06 14:34 -35.66773 -58.40336 33900 ft 422 kts 219°
2026-05-06 14:34 -35.71814 -58.44058 33903 ft 423 kts 219°
2026-05-06 14:35 -35.77043 -58.47486 33903 ft 433 kts 211°
2026-05-06 14:35 -35.82587 -58.50286 33909 ft 434 kts 211°
2026-05-06 14:36 -35.88165 -58.53121 33911 ft 434 kts 211°
2026-05-06 14:36 -35.93758 -58.55974 33915 ft 435 kts 212°
2026-05-06 14:37 -35.99345 -58.58835 33913 ft 435 kts 212°
2026-05-06 14:37 -36.04940 -58.61703 33914 ft 436 kts 212°
2026-05-06 14:38 -36.10543 -58.64578 33924 ft 436 kts 212°
2026-05-06 14:38 -36.16144 -58.67456 33929 ft 435 kts 213°
2026-05-06 14:39 -36.21736 -58.70329 33933 ft 435 kts 213°
2026-05-06 14:39 -36.27278 -58.73185 33937 ft 434 kts 213°
2026-05-06 14:40 -36.32848 -58.76060 33937 ft 433 kts 213°
2026-05-06 14:40 -36.38403 -58.78929 33944 ft 432 kts 213°
2026-05-06 14:41 -36.43953 -58.81797 33948 ft 431 kts 213°
2026-05-06 14:41 -36.49475 -58.84658 33945 ft 430 kts 214°
2026-05-06 14:42 -36.54984 -58.87523 33934 ft 429 kts 213°
2026-05-06 14:42 -36.60481 -58.90379 33942 ft 427 kts 213°
2026-05-06 14:43 -36.65965 -58.93233 33944 ft 427 kts 213°
2026-05-06 14:43 -36.71404 -58.96075 33938 ft 427 kts 213°
2026-05-06 14:44 -36.76879 -58.98943 33940 ft 427 kts 213°
2026-05-06 14:45 -36.85097 -59.03238 33930 ft 427 kts 213°
2026-05-06 14:45 -36.90581 -59.06111 33931 ft 427 kts 213°
2026-05-06 14:46 -36.96068 -59.08992 33920 ft 428 kts 213°
2026-05-06 14:46 -37.01568 -59.11885 33913 ft 429 kts 213°
2026-05-06 14:47 -37.07069 -59.14789 33908 ft 429 kts 213°
2026-05-06 14:47 -37.12583 -59.17696 33901 ft 430 kts 213°
2026-05-06 14:48 -37.18102 -59.20613 33886 ft 431 kts 213°
2026-05-06 14:48 -37.23392 -59.23861 33885 ft 418 kts 223°
2026-05-06 14:49 -37.27973 -59.28230 33882 ft 413 kts 227°
2026-05-06 14:49 -37.32522 -59.32656 33880 ft 415 kts 226°
2026-05-06 14:50 -37.37097 -59.37109 33887 ft 416 kts 226°
2026-05-06 14:50 -37.41687 -59.41575 33896 ft 418 kts 226°
2026-05-06 14:51 -37.46301 -59.46071 33902 ft 420 kts 226°
2026-05-06 14:51 -37.50151 -59.49826 33910 ft 422 kts 226°
2026-05-06 14:52 -37.54797 -59.54374 33918 ft 424 kts 226°
2026-05-06 14:52 -37.59458 -59.58944 33917 ft 425 kts 226°
2026-05-06 14:53 -37.64136 -59.63523 33918 ft 427 kts 225°
2026-05-06 14:53 -37.68827 -59.68140 33920 ft 428 kts 225°
2026-05-06 14:54 -37.73538 -59.72786 33920 ft 430 kts 225°
2026-05-06 14:54 -37.78225 -59.77407 33925 ft 431 kts 226°
2026-05-06 14:55 -37.82958 -59.82073 33932 ft 432 kts 226°
2026-05-06 14:55 -37.87698 -59.86757 33686 ft 433 kts 226°
2026-05-06 14:55 -37.90067 -59.89105 33430 ft 434 kts 226°
2026-05-06 14:56 -37.92448 -59.91468 33158 ft 434 kts 226°
2026-05-06 14:56 -37.94826 -59.93832 32906 ft 435 kts 226°
2026-05-06 14:56 -37.97211 -59.96203 32649 ft 436 kts 226°
2026-05-06 14:56 -37.99477 -59.98712 32398 ft 429 kts 234°
2026-05-06 14:57 -38.01374 -60.01581 32142 ft 421 kts 242°
2026-05-06 14:57 -38.02881 -60.04725 31718 ft 415 kts 250°
2026-05-06 14:57 -38.04058 -60.08056 31009 ft 413 kts 253°
2026-05-06 14:57 -38.05175 -60.11376 30522 ft 408 kts 253°
2026-05-06 14:58 -38.06291 -60.14683 29966 ft 406 kts 253°
2026-05-06 14:58 -38.07399 -60.17954 29379 ft 402 kts 253°
2026-05-06 14:58 -38.08500 -60.21196 28854 ft 398 kts 253°
2026-05-06 14:58 -38.09588 -60.24404 28329 ft 393 kts 253°
2026-05-06 14:59 -38.10661 -60.27580 27823 ft 389 kts 253°
2026-05-06 14:59 -38.11705 -60.30677 27324 ft 385 kts 253°
2026-05-06 14:59 -38.12750 -60.33786 26829 ft 381 kts 253°
2026-05-06 14:59 -38.13783 -60.36865 26340 ft 377 kts 254°
2026-05-06 15:00 -38.14805 -60.39913 25856 ft 373 kts 254°
2026-05-06 15:00 -38.15819 -60.42929 25374 ft 370 kts 254°
2026-05-06 15:00 -38.16825 -60.45928 24874 ft 367 kts 254°
2026-05-06 15:00 -38.17819 -60.48902 24383 ft 365 kts 254°
2026-05-06 15:01 -38.18806 -60.51856 23906 ft 362 kts 254°
2026-05-06 15:01 -38.19787 -60.54793 23428 ft 359 kts 254°
2026-05-06 15:01 -38.20756 -60.57698 22938 ft 355 kts 254°
2026-05-06 15:01 -38.21713 -60.60567 22496 ft 350 kts 255°
2026-05-06 15:02 -38.22655 -60.63391 22097 ft 345 kts 255°
2026-05-06 15:02 -38.23581 -60.66179 21688 ft 340 kts 255°
2026-05-06 15:02 -38.24494 -60.68935 21291 ft 336 kts 255°
2026-05-06 15:02 -38.25400 -60.71670 20889 ft 334 kts 255°
2026-05-06 15:03 -38.26301 -60.74388 20507 ft 333 kts 255°
2026-05-06 15:03 -38.27197 -60.77091 20098 ft 331 kts 255°
2026-05-06 15:03 -38.28078 -60.79756 19709 ft 330 kts 255°
2026-05-06 15:03 -38.28963 -60.82440 19308 ft 328 kts 255°
2026-05-06 15:04 -38.29843 -60.85116 18896 ft 327 kts 255°
2026-05-06 15:04 -38.30722 -60.87784 18488 ft 326 kts 255°
2026-05-06 15:04 -38.31598 -60.90435 18051 ft 324 kts 255°
2026-05-06 15:04 -38.32470 -60.93073 17612 ft 323 kts 255°
2026-05-06 15:05 -38.33336 -60.95706 17204 ft 321 kts 255°
2026-05-06 15:05 -38.34193 -60.98318 16780 ft 320 kts 255°
2026-05-06 15:05 -38.35050 -61.00936 16379 ft 319 kts 255°
2026-05-06 15:05 -38.35903 -61.03541 15972 ft 318 kts 254°
2026-05-06 15:06 -38.36750 -61.06135 15572 ft 317 kts 255°
2026-05-06 15:06 -38.37392 -61.08784 15172 ft 309 kts 264°
2026-05-06 15:06 -38.37815 -61.11464 14782 ft 308 kts 264°
2026-05-06 15:06 -38.38241 -61.14135 14382 ft 308 kts 264°
2026-05-06 15:07 -38.38671 -61.16809 13993 ft 307 kts 264°
2026-05-06 15:07 -38.39097 -61.19468 13599 ft 306 kts 264°
2026-05-06 15:07 -38.39519 -61.22127 13175 ft 305 kts 264°
2026-05-06 15:07 -38.39932 -61.24743 12782 ft 305 kts 264°
2026-05-06 15:08 -38.40348 -61.27383 12385 ft 303 kts 264°
2026-05-06 15:08 -38.40764 -61.30020 11986 ft 303 kts 264°
2026-05-06 15:08 -38.41178 -61.32640 11586 ft 301 kts 264°
2026-05-06 15:08 -38.41589 -61.35255 11186 ft 300 kts 264°
2026-05-06 15:09 -38.41997 -61.37860 10781 ft 299 kts 264°
2026-05-06 15:09 -38.42405 -61.40460 10415 ft 297 kts 264°
2026-05-06 15:09 -38.42805 -61.42989 10287 ft 286 kts 264°
2026-05-06 15:09 -38.43192 -61.45445 10107 ft 279 kts 264°
2026-05-06 15:10 -38.43569 -61.47871 10051 ft 279 kts 264°
2026-05-06 15:10 -38.43943 -61.50294 9968 ft 279 kts 264°
2026-05-06 15:10 -38.44316 -61.52699 9847 ft 271 kts 264°
2026-05-06 15:10 -38.44680 -61.55011 9708 ft 261 kts 264°
2026-05-06 15:11 -38.45035 -61.57267 9405 ft 257 kts 264°
2026-05-06 15:11 -38.45384 -61.59503 9028 ft 257 kts 264°
2026-05-06 15:11 -38.45726 -61.61726 8697 ft 254 kts 264°
2026-05-06 15:11 -38.46066 -61.63940 8330 ft 254 kts 264°
2026-05-06 15:12 -38.46403 -61.66142 7967 ft 253 kts 264°
2026-05-06 15:12 -38.46742 -61.68350 7605 ft 253 kts 264°
2026-05-06 15:12 -38.47075 -61.70518 7261 ft 253 kts 264°
2026-05-06 15:12 -38.47412 -61.72718 6900 ft 253 kts 264°
2026-05-06 15:13 -38.47752 -61.74922 6569 ft 253 kts 264°
2026-05-06 15:13 -38.48092 -61.77125 6332 ft 253 kts 264°
2026-05-06 15:13 -38.48430 -61.79329 6111 ft 253 kts 264°
2026-05-06 15:13 -38.48768 -61.81534 5903 ft 253 kts 264°
2026-05-06 15:14 -38.49108 -61.83742 5706 ft 254 kts 264°
2026-05-06 15:14 -38.49445 -61.85956 5510 ft 254 kts 264°
2026-05-06 15:14 -38.49655 -61.87340 5380 ft 254 kts 264°
2026-05-06 15:14 -38.49992 -61.89556 5185 ft 254 kts 264°
2026-05-06 15:15 -38.50328 -61.91764 4985 ft 254 kts 264°
2026-05-06 15:15 -38.50664 -61.93971 4797 ft 250 kts 264°
2026-05-06 15:15 -38.50990 -61.96119 4642 ft 245 kts 264°
2026-05-06 15:15 -38.51314 -61.98264 4518 ft 246 kts 264°
2026-05-06 15:16 -38.51640 -62.00414 4340 ft 247 kts 264°
2026-05-06 15:16 -38.51964 -62.02561 4152 ft 246 kts 264°
2026-05-06 15:16 -38.52287 -62.04710 3966 ft 246 kts 264°
2026-05-06 15:16 -38.52610 -62.06851 3881 ft 246 kts 264°
2026-05-06 15:17 -38.52929 -62.08960 3782 ft 236 kts 263°
2026-05-06 15:17 -38.53237 -62.10968 3645 ft 227 kts 264°
2026-05-06 15:17 -38.53640 -62.12905 3388 ft 227 kts 258°
2026-05-06 15:17 -38.54090 -62.14856 2942 ft 231 kts 258°
2026-05-06 15:18 -38.54595 -62.16826 2494 ft 238 kts 248°
2026-05-06 15:18 -38.55554 -62.18561 2205 ft 239 kts 223°
2026-05-06 15:18 -38.56866 -62.19699 2217 ft 225 kts 202°
2026-05-06 15:18 -38.58329 -62.20221 2193 ft 211 kts 179°
2026-05-06 15:19 -38.59709 -62.20162 2196 ft 189 kts 160°
2026-05-06 15:19 -38.60936 -62.19737 2175 ft 180 kts 153°
2026-05-06 15:19 -38.62132 -62.19292 2026 ft 177 kts 153°
2026-05-06 15:19 -38.63312 -62.18852 1846 ft 178 kts 154°
2026-05-06 15:20 -38.64471 -62.18422 1648 ft 169 kts 153°
2026-05-06 15:20 -38.65585 -62.18009 1449 ft 163 kts 152°
2026-05-06 15:20 -38.66653 -62.17611 1240 ft 160 kts 154°
2026-05-06 15:20 -38.67712 -62.17215 1047 ft 156 kts 154°
2026-05-06 15:21 -38.68737 -62.16833 852 ft 150 kts 158°
2026-05-06 15:21 -38.69724 -62.16463 640 ft 146 kts 159°
2026-05-06 15:21 -38.70685 -62.16115 492 ft 141 kts 160°
2026-05-06 15:21 -38.71613 -62.15765 336 ft 137 kts 155°
2026-05-06 15:22 -38.72506 -62.15428 295 ft 135 kts 161°
2026-05-06 15:22 -38.73471 -62.15109 874 ft 154 kts 162°
2026-05-06 15:22 -38.74596 -62.14741 1449 ft 180 kts 158°
2026-05-06 15:22 -38.75959 -62.14342 1738 ft 221 kts 160°
2026-05-06 15:23 -38.77550 -62.13879 2032 ft 239 kts 160°
2026-05-06 15:23 -38.79210 -62.13410 2350 ft 247 kts 160°
2026-05-06 15:23 -38.80893 -62.12932 2633 ft 247 kts 160°
2026-05-06 15:23 -38.82438 -62.12083 2910 ft 239 kts 136°
2026-05-06 15:24 -38.83517 -62.10566 2977 ft 225 kts 110°
2026-05-06 15:24 -38.83983 -62.08712 3001 ft 215 kts 87°
2026-05-06 15:24 -38.83843 -62.06846 3005 ft 208 kts 67°
2026-05-06 15:24 -38.83188 -62.05227 3006 ft 203 kts 49°
2026-05-06 15:25 -38.82301 -62.03820 3004 ft 203 kts 48°
2026-05-06 15:25 -38.81417 -62.02412 3002 ft 202 kts 49°
2026-05-06 15:25 -38.80537 -62.01006 3003 ft 202 kts 49°
2026-05-06 15:25 -38.79657 -61.99602 2997 ft 202 kts 49°
2026-05-06 15:26 -38.78790 -61.98218 3001 ft 203 kts 49°
2026-05-06 15:26 -38.77907 -61.96804 3004 ft 203 kts 49°
2026-05-06 15:26 -38.77020 -61.95386 3000 ft 203 kts 49°
2026-05-06 15:26 -38.76136 -61.93973 2999 ft 204 kts 49°
2026-05-06 15:27 -38.75249 -61.92556 3000 ft 204 kts 49°
2026-05-06 15:27 -38.74363 -61.91140 3000 ft 203 kts 49°
2026-05-06 15:27 -38.73481 -61.89729 3001 ft 203 kts 49°
2026-05-06 15:27 -38.72593 -61.88314 2999 ft 203 kts 49°
2026-05-06 15:28 -38.71532 -61.87151 2997 ft 203 kts 26°
2026-05-06 15:28 -38.70145 -61.86814 3001 ft 210 kts 358°
2026-05-06 15:28 -38.68767 -61.87510 3000 ft 223 kts 326°
2026-05-06 15:28 -38.67700 -61.89014 3002 ft 231 kts 316°
2026-05-06 15:29 -38.66682 -61.90612 3002 ft 232 kts 316°
2026-05-06 15:29 -38.65668 -61.92212 3003 ft 231 kts 316°
2026-05-06 15:29 -38.64671 -61.93783 3002 ft 231 kts 316°
2026-05-06 15:29 -38.63652 -61.95381 3004 ft 233 kts 316°
2026-05-06 15:30 -38.62625 -61.96985 2998 ft 233 kts 316°
2026-05-06 15:30 -38.61608 -61.98575 2995 ft 229 kts 316°
2026-05-06 15:30 -38.60615 -62.00134 2997 ft 223 kts 316°
2026-05-06 15:30 -38.59643 -62.01661 2996 ft 220 kts 316°
2026-05-06 15:31 -38.58673 -62.03172 3000 ft 220 kts 316°
2026-05-06 15:31 -38.57703 -62.04680 2999 ft 220 kts 316°
2026-05-06 15:31 -38.56730 -62.06193 3001 ft 221 kts 316°
2026-05-06 15:32 -38.54774 -62.09235 2998 ft 222 kts 316°
2026-05-06 15:32 -38.53915 -62.10879 3002 ft 228 kts 296°
2026-05-06 15:32 -38.53678 -62.12914 2952 ft 240 kts 268°
2026-05-06 15:32 -38.54091 -62.15002 2870 ft 242 kts 257°
2026-05-06 15:33 -38.54575 -62.17063 2745 ft 242 kts 257°
2026-05-06 15:33 -38.55066 -62.19106 2619 ft 237 kts 253°
2026-05-06 15:33 -38.56025 -62.20730 2460 ft 230 kts 213°
2026-05-06 15:33 -38.57485 -62.21164 2273 ft 214 kts 167°
2026-05-06 15:34 -38.58851 -62.20683 2187 ft 195 kts 149°
2026-05-06 15:34 -38.60086 -62.20109 2191 ft 185 kts 152°
2026-05-06 15:34 -38.61302 -62.19617 2139 ft 182 kts 153°
2026-05-06 15:34 -38.62512 -62.19155 1980 ft 180 kts 153°
2026-05-06 15:35 -38.63712 -62.18704 1778 ft 180 kts 153°
2026-05-06 15:35 -38.64912 -62.18257 1592 ft 177 kts 153°
2026-05-06 15:35 -38.66082 -62.17824 1371 ft 169 kts 153°
2026-05-06 15:35 -38.67194 -62.17410 1147 ft 162 kts 155°
2026-05-06 15:36 -38.68253 -62.17015 952 ft 155 kts 155°
2026-05-06 15:36 -38.69273 -62.16634 753 ft 150 kts 159°
2026-05-06 15:36 -38.70248 -62.16254 646 ft 143 kts 160°
2026-05-06 15:36 -38.71205 -62.15908 377 ft 142 kts 160°
2026-05-06 15:37 -38.72118 -62.15573 261 ft 128 kts 159°
2026-05-06 15:37 -38.72765 -62.15317 256 ft 57 kts 164°
2026-05-06 15:37 -38.72945 -62.15258 254 ft 5 kts 166°
2026-05-06 15:37 -38.72994 -62.15242 254 ft 19 kts 165°
2026-05-06 15:38 -38.73128 -62.15192 255 ft 19 kts 162°
2026-05-06 15:38 -38.73245 -62.15156 255 ft 16 kts 169°
2026-05-06 15:38 -38.73330 -62.15154 257 ft 9 kts 169°
2026-05-06 15:38 -38.73336 -62.15105 257 ft 8 kts 12°
2026-05-06 15:39 -38.73271 -62.15136 256 ft 14 kts 338°
2026-05-06 15:39 -38.73143 -62.15189 255 ft 24 kts 346°
2026-05-06 15:39 -38.72956 -62.15255 254 ft 29 kts 345°
2026-05-06 15:39 -38.72778 -62.15326 256 ft 24 kts 338°
2026-05-06 15:40 -38.72620 -62.15386 256 ft 26 kts 345°
2026-05-06 15:40 -38.72444 -62.15440 258 ft 24 kts 348°
2026-05-06 15:40 -38.72294 -62.15495 258 ft 21 kts 342°
2026-05-06 15:40 -38.72169 -62.15547 257 ft 18 kts 342°
2026-05-06 15:41 -38.72059 -62.15603 256 ft 16 kts 335°
2026-05-06 15:41 -38.71986 -62.15692 256 ft 13 kts 314°
2026-05-06 15:41 -38.71931 -62.15765 256 ft 10 kts 314°
2026-05-06 15:41 -38.71886 -62.15824 256 ft 8 kts 314°
2026-05-06 15:42 -38.71837 -62.15898 257 ft 13 kts 292°
2026-05-06 15:42 -38.71820 -62.15989 257 ft 8 kts 326°
2026-05-06 15:42 -38.71746 -62.16028 257 ft 16 kts 346°
2026-05-06 15:42 -38.71666 -62.16064 257 ft 8 kts 311°
2026-05-06 15:43 -38.71652 -62.16116 257 ft 4 kts 279°
2026-05-06 15:43 -38.71650 -62.16139 257 ft 3 kts 278°
2026-05-06 15:43 -38.71646 -62.16170 257 ft 2 kts 278°
2026-05-06 15:43 -38.71642 -62.16203 257 ft 8 kts 278°
2026-05-06 15:44 -38.71641 -62.16262 257 ft 5 kts 262°
2026-05-06 15:44 -38.71642 -62.16291 257 ft 2 kts 270°
2026-05-06 15:44 -38.71642 -62.16296 257 ft 0 kts 270°
2026-05-06 15:44 -38.71642 -62.16302 257 ft 1 kts 272°
2026-05-06 15:45 -38.71642 -62.16303 257 ft 0 kts 272°
2026-05-06 16:03 -38.71642 -62.16302 257 ft 0 kts 272°